Mount Pleasant, MI

3:00 PM EST on February 06, 2016 (GMT -0500)
Mount Pleasant Municipal

Weather History for KMOP - December, 2013

Change the Weather History Date:

Monday, December 9, 2013

  Actual Average (KAMN) Record (KAMN)
Temperature  
Mean Temperature 20 °F -  
Max Temperature 28 °F 35 °F 57 °F (1952)
Min Temperature 12 °F 22 °F -2 °F (1958)
Degree Days  
Heating Degree Days 45    
Moisture  
Dew Point 17 °F    
Average Humidity 79    
Maximum Humidity 93    
Minimum Humidity 55    
Precipitation  
Precipitation 0.03 in - - ()
Sea Level Pressure  
Sea Level Pressure 29.90 in    
Wind  
Wind Speed 7 mph (SW)    
Max Wind Speed 22 mph    
Max Gust Speed 31 mph    
Visibility 6 miles    
Events Snow    
Averages and records for this station are not official NWS values.
T = Trace of Precipitation, MM = Missing Value Source: NWS Daily Summary

Daily Weather History Graph

Daily Weather History Graph

Search for Another Location

Airport or City:

Trip Planner

Search our weather history database for the weather conditions in past years. The results will help you decide how hot, cold, wet, or windy it might be!

Date:

Astronomy

Dec. 09, 2013 Rise Set
Actual Time 8:00 AM EST 5:02 PM EST
Civil Twilight 7:28 AM EST 5:34 PM EST
Nautical Twilight 6:52 AM EST 6:10 PM EST
Astronomical Twilight 6:17 AM EST 6:45 PM EST
Moon 12:42 PM EST (12/9) 12:00 AM EST (12/9)
Length of Visible Light 10h 06m
Length of Day
9h 01m
Waxing Crescent, 51% of the Moon is Illuminated
Dec 9
Waxing Crescent
Dec 17
Full
Dec 25
Last Quarter
Jan 1
New
Jan 7
First Quarter

Hourly Weather History & Observations

Time (EST) Temp. Windchill Dew Point Humidity Pressure Visibility Wind Dir Wind Speed Gust Speed Precip Events Conditions
12:15 AM 23.4 °F 18.9 °F 21.2 °F 91% 29.96 in 1.5 mi ENE 3.5 mph - 0.01 in Snow Light Snow
12:35 AM 23.5 °F - 21.4 °F 91% 29.94 in 1.0 mi Calm Calm - 0.01 in Snow Snow
12:55 AM 23.5 °F 19.1 °F 21.6 °F 92% 29.92 in 1.2 mi NE 3.5 mph - 0.02 in Snow Light Snow
1:15 AM 23.5 °F 17.6 °F 21.6 °F 92% 29.89 in 5.0 mi ENE 4.6 mph - N/A Snow Light Snow
1:35 AM 23.9 °F - 21.9 °F 92% 29.88 in 2.5 mi Calm Calm - N/A Snow Light Snow
1:55 AM 23.9 °F - 21.9 °F 92% 29.87 in 3.0 mi Calm Calm - N/A Snow Light Snow
2:14 AM 23.9 °F - 21.9 °F 92% 29.86 in 1.5 mi Calm Calm - 0.01 in Snow Light Snow
2:35 AM 23.7 °F - 21.9 °F 93% 29.85 in 5.0 mi Calm Calm - 0.01 in Snow Light Snow
2:55 AM 24.1 °F - 22.3 °F 93% 29.86 in 7.0 mi Calm Calm - 0.01 in   Overcast
3:14 AM 24.3 °F - 22.1 °F 91% 29.86 in 7.0 mi Calm Calm - N/A   Overcast
3:35 AM 23.9 °F - 21.9 °F 92% 29.85 in 7.0 mi Calm Calm - N/A   Overcast
3:55 AM 23.9 °F - 21.9 °F 92% 29.84 in 7.0 mi Calm Calm - N/A   Overcast
4:14 AM 23.9 °F - 22.1 °F 93% 29.83 in 7.0 mi Calm Calm - N/A   Overcast
4:35 AM 24.3 °F - 22.1 °F 91% 29.82 in 7.0 mi Calm Calm - N/A   Overcast
4:55 AM 24.4 °F - 22.3 °F 91% 29.81 in 7.0 mi Calm Calm - N/A   Overcast
5:14 AM 24.6 °F 18.8 °F 22.1 °F 90% 29.81 in 7.0 mi SSW 4.6 mph - N/A   Overcast
5:35 AM 24.6 °F 17.7 °F 22.1 °F 90% 29.81 in 7.0 mi SSW 5.8 mph - N/A   Overcast
5:55 AM 24.8 °F 17.9 °F 22.1 °F 89% 29.81 in 7.0 mi SSW 5.8 mph - N/A   Overcast
6:15 AM 24.8 °F 17.9 °F 22.5 °F 91% 29.81 in 4.0 mi SW 5.8 mph - N/A   Overcast
6:35 AM 24.8 °F 19.1 °F 22.6 °F 91% 29.80 in 5.0 mi SW 4.6 mph - N/A   Overcast
6:55 AM 25.2 °F 18.3 °F 23.0 °F 91% 29.81 in 3.0 mi SW 5.8 mph - N/A Snow Light Snow
7:15 AM 25.2 °F 18.3 °F 23.0 °F 91% 29.81 in 3.0 mi SW 5.8 mph - N/A Snow Light Snow
7:35 AM 25.2 °F 18.3 °F 23.0 °F 91% 29.82 in 5.0 mi SW 5.8 mph - N/A   Overcast
7:55 AM 25.3 °F 18.5 °F 23.0 °F 91% 29.82 in 7.0 mi SW 5.8 mph - N/A   Overcast
8:15 AM 25.5 °F 21.3 °F 23.0 °F 90% 29.81 in 7.0 mi WSW 3.5 mph - N/A   Overcast
8:35 AM 25.7 °F 19.0 °F 23.0 °F 89% 29.82 in 4.0 mi SW 5.8 mph - N/A Snow Light Snow
8:55 AM 25.7 °F 19.0 °F 23.0 °F 89% 29.83 in 5.0 mi SW 5.8 mph - N/A Snow Light Snow
9:15 AM 26.1 °F 17.6 °F 23.0 °F 88% 29.83 in 5.0 mi SW 8.1 mph - N/A Snow Light Snow
9:35 AM 26.4 °F 19.8 °F 23.5 °F 89% 29.84 in 4.0 mi SW 5.8 mph - N/A Snow Light Snow
9:55 AM 26.8 °F 19.3 °F 23.9 °F 89% 29.85 in 4.0 mi WSW 6.9 mph - N/A Snow Light Snow
10:15 AM 27.3 °F 19.1 °F 24.3 °F 88% 29.86 in 5.0 mi WSW 8.1 mph - N/A Snow Light Snow
10:35 AM 27.7 °F 20.4 °F 24.3 °F 87% 29.86 in 7.0 mi WSW 6.9 mph - N/A Snow Light Snow
10:55 AM 28.2 °F 19.5 °F 23.9 °F 84% 29.88 in 7.0 mi WSW 9.2 mph - N/A Snow Light Snow
11:15 AM 28.4 °F 20.4 °F 23.9 °F 83% 29.88 in 5.0 mi WSW 8.1 mph - N/A Snow Light Snow
11:35 AM 28.2 °F 16.3 °F 23.9 °F 84% 29.87 in 4.0 mi WSW 16.1 mph - N/A Snow Light Snow
11:54 AM 28.0 °F 16.1 °F 23.0 °F 81% 29.87 in 4.0 mi WSW 16.1 mph 25.3 mph N/A Snow Light Snow
12:15 PM 27.7 °F 15.2 °F 22.5 °F 81% 29.86 in 5.0 mi WSW 17.3 mph 24.2 mph N/A Snow Light Snow
12:34 PM 27.3 °F 16.1 °F 21.9 °F 80% 29.86 in 7.0 mi WSW 13.8 mph 24.2 mph N/A Snow Light Snow
12:55 PM 26.6 °F 12.7 °F 20.3 °F 77% 29.86 in 7.0 mi SW 20.7 mph 27.6 mph N/A   Overcast
1:15 PM 26.1 °F 14.5 °F 19.0 °F 75% 29.86 in 7.0 mi WSW 13.8 mph 24.2 mph N/A   Overcast
1:35 PM 25.7 °F 12.3 °F 18.5 °F 74% 29.87 in 10.0 mi WSW 18.4 mph 25.3 mph N/A   Overcast
1:55 PM 25.2 °F 10.4 °F 18.3 °F 75% 29.87 in 5.0 mi WSW 21.9 mph 31.1 mph N/A Snow Light Snow
2:15 PM 25.3 °F 12.2 °F 17.6 °F 72% 29.88 in 4.0 mi SW 17.3 mph 28.8 mph N/A Snow Light Snow
2:35 PM 25.2 °F 12.9 °F 18.5 °F 76% 29.88 in 3.0 mi WSW 15.0 mph 21.9 mph N/A Snow Light Snow
2:55 PM 24.4 °F 10.2 °F 17.8 °F 76% 29.88 in 2.0 mi WSW 19.6 mph 28.8 mph N/A Snow Light Snow
3:15 PM 24.4 °F 12.4 °F 17.4 °F 75% 29.91 in 5.0 mi SW 13.8 mph 25.3 mph N/A Snow Light Snow
3:35 PM 23.9 °F 9.9 °F 16.7 °F 74% 29.91 in 4.0 mi SW 18.4 mph 27.6 mph N/A Snow Light Snow
3:55 PM 23.7 °F 12.1 °F 16.0 °F 72% 29.92 in 5.0 mi WSW 12.7 mph 26.5 mph N/A Snow Light Snow
4:15 PM 22.6 °F 10.7 °F 14.5 °F 71% 29.92 in 10.0 mi SW 12.7 mph 24.2 mph N/A   Scattered Clouds
4:35 PM 22.5 °F 8.9 °F 14.4 °F 71% 29.93 in 10.0 mi SW 16.1 mph 24.2 mph N/A   Mostly Cloudy
4:55 PM 21.9 °F 7.8 °F 15.1 °F 75% 29.93 in 7.0 mi SW 17.3 mph 25.3 mph N/A Snow Light Snow
5:14 PM 21.9 °F 7.3 °F 15.4 °F 76% 29.94 in 5.0 mi SW 18.4 mph 27.6 mph N/A Snow Light Snow
5:35 PM 21.7 °F 6.7 °F 15.4 °F 77% 29.94 in 5.0 mi SW 19.6 mph 26.5 mph N/A Snow Light Snow
5:55 PM 21.7 °F 7.1 °F 14.0 °F 72% 29.95 in 10.0 mi SW 18.4 mph 26.5 mph N/A   Mostly Cloudy
6:14 PM 21.9 °F 7.3 °F 13.3 °F 69% 29.95 in 10.0 mi SW 18.4 mph 26.5 mph N/A   Overcast
6:35 PM 21.6 °F 6.9 °F 14.4 °F 74% 29.96 in 7.0 mi SW 18.4 mph 25.3 mph N/A Snow Light Snow
6:55 PM 21.2 °F 7.3 °F 12.2 °F 68% 29.96 in 10.0 mi SW 16.1 mph 27.6 mph N/A   Scattered Clouds
7:14 PM 21.4 °F 7.1 °F 10.8 °F 64% 29.96 in 10.0 mi SW 17.3 mph 27.6 mph N/A   Scattered Clouds
7:35 PM 21.2 °F 8.3 °F 10.6 °F 64% 29.97 in 10.0 mi WSW 13.8 mph 25.3 mph N/A   Overcast
7:55 PM 20.3 °F 5.2 °F 10.6 °F 66% 29.97 in 7.0 mi WSW 18.4 mph 28.8 mph N/A   Scattered Clouds
8:14 PM 19.6 °F 6.2 °F 7.7 °F 60% 29.97 in 10.0 mi WSW 13.8 mph 27.6 mph N/A   Scattered Clouds
8:35 PM 18.7 °F 3.1 °F 5.4 °F 56% 29.98 in 10.0 mi West 18.4 mph 26.5 mph N/A   Clear
8:55 PM 17.8 °F 2.9 °F 3.9 °F 55% 29.99 in 10.0 mi West 16.1 mph 29.9 mph N/A   Clear
9:14 PM 17.4 °F 1.9 °F 3.7 °F 55% 29.99 in 10.0 mi WSW 17.3 mph 26.5 mph N/A   Clear
9:35 PM 16.3 °F 1.6 °F 2.7 °F 55% 30.00 in 10.0 mi WSW 15.0 mph 24.2 mph N/A   Clear
9:55 PM 15.6 °F 1.8 °F 2.3 °F 56% 30.01 in 10.0 mi WSW 12.7 mph 24.2 mph N/A   Clear
10:14 PM 14.9 °F -0.3 °F 2.1 °F 57% 30.02 in 10.0 mi WSW 15.0 mph 24.2 mph N/A   Clear
10:35 PM 14.4 °F -0.4 °F 3.0 °F 61% 30.02 in 10.0 mi WSW 13.8 mph 20.7 mph N/A   Clear
10:55 PM 13.1 °F 0.1 °F 2.3 °F 62% 30.03 in 10.0 mi WSW 10.4 mph 16.1 mph N/A   Clear
11:15 PM 13.1 °F 0.9 °F 2.8 °F 64% 30.03 in 10.0 mi WSW 9.2 mph - N/A   Scattered Clouds
11:35 PM 12.9 °F -0.9 °F 2.3 °F 63% 30.04 in 10.0 mi WSW 11.5 mph - N/A   Scattered Clouds
11:55 PM 12.9 °F 0.7 °F 3.0 °F 65% 30.05 in 10.0 mi West 9.2 mph - N/A   Mostly Cloudy